Home > Weather > Schwyz > Past weeks

Flag for Switzerland Past Weather in Schwyz, Schwyz, Switzerland — Yesterday and Last 2 Weeks

Now
69 °F

Mild.


Feels Like: 69 °F
Forecast: 64 / 79 °F
Wind: 3 mph from South

Location: Altdorf

Current Time: Jun 25, 2016 at 1:50:13 AM

Latest Report: Jun 25, 2016 at 1:00 AM


Visibility: N/A

Pressure: 29.95 "Hg (28.21 "Hg at 515m altitude)

Humidity: 85%

Dew Point: 64 °F

Location of SchwyzLocation

Past Weather in Schwyz — Graph

°F

Schwyz Temperature Yesterday

Maximum temperature yesterday: 86 °F (at 5:00 PM)
Minimum temperature yesterday: 63 °F (at 5:00 AM)
Average temperature yesterday: 75 °F

High & Low Weather Summary for the Past Weeks

 TemperatureHumidityPressure
High87 °F (Jun 23, 5:00 PM)100% (Jun 22, 9:00 AM)30.29 "Hg (Jun 22, 9:00 AM)
Low47 °F (Jun 10, 5:00 AM)43% (Jun 10, 6:00 PM)29.58 "Hg (Jun 15, 3:00 PM)
Average61 °F81%29.95 "Hg
* Reported Jun 10 12:00 AM — Jun 25 12:00 AM, Schwyz, Weather by CustomWeather, © 2016

Note: Actual official high and low records may vary slightly from our data, if they occured in-between our weather recording intervals... More about our weather records

Advertising

Schwyz Weather History for the Previous 24 Hours

Scroll right to see more
 ConditionsComfort  
Time TempWeatherWind HumidityBarometerVisibility
12:00 AM
Sat, Jun 25
70 °FMild.2 mph77%29.96 "HgN/A
11:00 PM
Fri, Jun 24
73 °FLight rain. Passing clouds.1 mph71%29.95 "Hg16 mi
10:00 PM74 °FMild.14 mph64%29.93 "HgN/A
9:00 PM80 °FWarm.10 mph50%29.93 "HgN/A
7:00 PM84 °FWarm.10 mph48%29.87 "HgN/A
6:00 PM85 °FWarm.9 mph50%29.88 "HgN/A
5:00 PM86 °FScattered clouds.10 mph47%29.89 "Hg17 mi
4:00 PM86 °FWarm.13 mph50%29.92 "HgN/A
3:00 PM86 °FWarm.12 mph50%29.94 "HgN/A
2:00 PM84 °FScattered clouds.7 mph52%29.97 "Hg17 mi
1:00 PM82 °FWarm.6 mph51%30.00 "HgN/A
12:00 PM80 °FWarm.6 mph52%30.02 "HgN/A
11:00 AM79 °FScattered clouds.1 mph51%30.04 "Hg17 mi
10:00 AM73 °FMild.8 mph56%30.07 "HgN/A
9:00 AM71 °FMild.2 mph59%30.09 "HgN/A
8:00 AM69 °FScattered clouds.2 mph67%30.10 "Hg19 mi
7:00 AM66 °FMild.2 mph72%30.11 "HgN/A
6:00 AM65 °FMild.2 mph73%30.11 "HgN/A
5:00 AM63 °FClear.2 mph79%30.11 "Hg19 mi
4:00 AM64 °FMild.2 mph78%30.10 "HgN/A
3:00 AM64 °FMild.1 mph80%30.09 "HgN/A
2:00 AM65 °FClear.3 mph81%30.08 "Hg19 mi
1:00 AM68 °FMild.1 mph77%30.07 "HgN/A
Weather by CustomWeather, © 2016

See weather overviewHow to use our weather pages